Location: Recife
(8.0585°S, 34.8848°W)
Time: 20:38:23
(UTC-03:00)

S-56A Canister/Altair - Pass Details

Date: 15 April 2026
Orbit: 633 x 2484 km, 38.9° (Epoch: 16 May)

Event Time Altitude Azimuth Distance (km) Brightness Sun altitude
Rises 02:23:50 0° 261° (W) 3,751 - -44.5°
Reaches altitude 10° 02:26:43 10° 275° (W) 3,040 - -43.8°
Maximum altitude 02:32:42 24° 326° (NNW) 2,596 - -42.3°
Exits shadow 02:36:25 20° 356° (N) 3,142 10.6 -41.4°
Drops below altitude 10° 02:40:42 10° 15° (NNE) 4,165 11.4 -40.4°
Sets 02:45:36 0° 27° (NNE) 5,485 12.3 -39.2°
